Location: Reggio Emilia
(44.6990°N, 10.6297°E)
Time: 09:20:48
(UTC+01:00)

ISS - Visible Passes

Search period start: 27 January 2021 00:00
Search period end: 06 February 2021 00:00
Orbit: 418 x 421 km, 51.6° (Epoch: 27 January)

Date Brightness Start Highest point End Pass type
(mag) Time Alt. Az. Time Alt. Az. Time Alt. Az.
27 Jan -2.3 18:00:18 10° WNW 18:03:17 28° N 18:06:15 10° NE visible
27 Jan -1.4 19:37:51 10° NW 19:39:13 19° NNW 19:39:13 19° NNW visible
28 Jan -2.3 18:50:25 10° NW 18:53:17 24° N 18:53:50 23° NNE visible
29 Jan -2.2 18:02:54 10° WNW 18:05:44 24° N 18:08:28 11° NE visible
29 Jan -1.5 19:39:58 10° NW 19:41:27 22° NW 19:41:27 22° NW visible
30 Jan -2.7 18:52:38 10° NW 18:55:42 30° NNE 18:56:07 29° NNE visible
31 Jan -2.4 18:05:14 10° NW 18:08:10 26° N 18:10:50 12° ENE visible
31 Jan -1.9 19:41:59 10° WNW 19:43:49 29° NW 19:43:49 29° NW visible
01 Feb -3.5 18:54:38 10° NW 18:57:57 51° NNE 18:58:36 43° ENE visible
02 Feb -3.0 18:07:16 10° NW 18:10:29 38° NNE 18:13:29 11° E visible
02 Feb -2.2 19:44:06 10° WNW 19:46:29 35° W 19:46:29 35° W visible
03 Feb -3.6 18:56:37 10° WNW 19:00:00 72° SSW 19:01:30 30° SE visible
04 Feb -3.8 18:09:12 10° WNW 18:12:36 75° NNE 18:15:58 10° ESE visible
04 Feb -1.2 19:46:45 10° W 19:49:04 17° SW 19:49:43 16° SSW visible
05 Feb -1.7 18:58:52 10° WNW 19:01:48 27° SW 19:04:42 10° SSE visible
